Location: Newark
(15.4608°S, 41.1635°W)
Time: 08:04:55
(UTC+00:00)

Transit 4A - Pass Details

Date: 13 March 2021
Orbit: 869 x 975 km, 66.8° (Epoch: 22 April)

Event Time Altitude Azimuth Distance (km) Brightness Sun altitude
Rises 20:10:03 0° 26° (NNE) 3,441 10.6 11.3°
Reaches altitude 10° 20:15:03 10° 64° (ENE) 2,509 9.7 10.1°
Maximum altitude 20:16:09 11° 75° (ENE) 2,474 9.6 9.8°
Drops below altitude 10° 20:17:15 10° 86° (E) 2,515 9.6 9.5°
Sets 20:22:16 0° 123° (ESE) 3,473 10.4 8.3°
